Probability
45 58 58 52 58 65 74 68 71 77 84 77 68 74 71 71 61 65 65 65 61 68 74 45 71 81 65 65 52 58 52 45 45 29 23 23 23 26 42 32 26 23 35
45 58 55 55 61 68 71 77 77 74 74 81 74 74 74 65 68 61 68 65 58 61 45 68 55 61 81 87 81 84 61 35 42 42 32 23 26 39 16 29 32 23 26
42 58 55 55 55 61 68 65 77 77 77 77 71 68 71 74 52 68 74 58 55 55 58 68 52 65 48 71 87 90 68 58 45 42 39 32 39 23 19 26 29 39 35
39 61 74 65 58 58 61 71 77 81 74 77 65 58 68 61 68 71 71 68 52 61 58 55 74 77 55 71 71 55 68 71 55 55 48 39 32 35 26 29 23 29 35
45 55 71 68 61 55 61 71 77 81 77 81 81 77 55 58 61 61 68 71 58 61 48 52 65 74 65 74 71 68 68 65 71 65 55 42 39 32 42 29 35 32 26
39 55 58 74 65 58 61 68 74 81 81 77 71 71 61 61 61 61 61 65 68 65 52 52 65 68 65 74 74 77 71 71 71 71 55 48 42 35 42 35 39 35 29
45 61 68 68 71 71 71 71 74 77 74 74 71 68 65 58 58 58 55 61 45 58 58 58 77 74 74 71 71 74 68 65 74 71 65 58 45 35 45 45 32 32 23
48 58 68 74 71 65 68 68 77 81 74 71 68 68 65 55 58 65 61 58 45 48 61 68 74 71 65 61 74 61 58 61 55 48 52 55 42 35 35 45 42 32 29
58 52 68 77 68 68 74 71 77 77 68 71 68 65 61 65 65 71 65 58 61 45 52 55 58 61 58 61 65 65 65 61 48 48 52 52 42 39 32 32 35 29 16
61 65 71 74 71 71 71 65 77 77 71 68 65 65 61 65 71 71 74 74 65 58 55 52 58 58 58 58 61 55 55 58 55 48 45 48 42 45 39 35 39 35 29
61 65 77 77 71 68 65 68 74 74 71 65 65 61 61 65 68 71 65 61 48 52 52 55 58 52 55 55 55 45 42 42 39 39 35 42 42 39 32 39 32 32 29
61 65 71 74 74 65 65 65 68 71 68 65 65 61 65 61 55 55 48 55 52 42 42 42 39 35 39 45 42 48 42 35 32 29 35 39 32 35 32 29 26 26 29
71 68 74 81 71 74 71 68 65 65 58 61 52 61 58 58 61 58 55 52 48 45 39 35 32 35 35 39 39 32 32 32 32 32 32 35 35 35 32 29 26 23 23
77 74 81 81 81 74 71 68 68 65 52 52 55 55 55 55 61 48 52 48 45 42 35 35 32 29 26 23 23 23 26 32 32 26 26 29 23 23 23 23 23 23 23
74 71 77 81 84 77 77 68 65 58 61 58 52 52 58 55 48 48 52 48 35 29 35 29 26 29 26 16 23 23 16 29 29 29 23 19 19 16 16 13 16 16 16
71 77 74 81 81 77 71 68 65 65 61 61 61 55 58 52 52 52 45 42 42 42 35 35 29 23 10 10 6 13 16 26 26 23 19 19 13 10 0 0 0 0 13
71 68 74 74 74 68 68 68 68 65 61 61 61 61 55 48 45 42 42 39 39 39 39 29 29 23 10 10 3 0 13 16 19 16 19 13 10 13 13 3 0 0 0
61 65 61 65 61 61 65 65 61 55 55 58 61 61 52 48 45 45 45 39 39 39 39 39 29 19 10 10 3 0 6 13 10 10 10 16 13 10 10 10 3 3 3
58 55 61 58 58 55 55 55 48 52 52 55 58 55 48 48 48 45 39 35 35 35 35 26 29 19 10 3 0 0 13 13 10 10 10 10 10 3 0 0 3 3 3
52 55 58 55 55 55 55 52 45 52 48 48 52 48 42 42 39 42 45 39 35 32 29 26 23 23 13 3 3 0 13 10 10 10 10 3 3 3 0 0 3 3 0
52 55 55 55 55 55 55 55 55 52 48 48 45 42 42 42 39 32 39 32 29 23 23 19 23 16 13 6 3 0 10 6 13 10 6 6 3 0 0 0 0 0 0
52 48 55 55 55 52 55 58 55 52 48 42 39 39 39 32 29 29 29 19 23 23 19 19 16 13 10 6 3 0 0 0 3 3 3 3 0 0 0 0 0 0 0
52 52 55 52 52 52 48 52 39 35 39 42 42 42 39 35 26 29 32 29 29 19 16 13 10 10 10 10 3 0 0 0 0 3 3 0 0 0 0 0 0 0 0
45 45 42 48 48 42 35 39 32 29 32 32 35 32 26 23 23 23 23 16 16 16 16 10 13 10 10 10 3 3 0 0 0 0 0 0 0 0 0 0 0 0 0
45 42 45 48 39 35 32 32 32 32 32 32 32 19 19 19 19 16 16 13 16 13 13 13 13 10 10 3 3 3 3 3 0 0 0 0 0 0 0 0 0 0 0
35 45 42 48 35 32 32 29 32 32 32 26 19 13 13 13 13 10 10 6 6 0 0 3 3 3 3 0 0 0 0 0 0 0 0 0 0 0 0 0 0 0 0
Height
5916 5913 5910 5908 5906 5904 5902 5900 5899 5898 5896 5895 5894 5893 5893 5892 5892 5891 5891 5891 5891 5890 5890 5891 5891 5891 5891 5891 5891 5892 5892 5892 5892 5892 5893 5893 5893 5892 5892 5892 5893 5893 5893
5918 5915 5913 5910 5908 5906 5904 5902 5900 5899 5897 5896 5895 5894 5893 5892 5891 5891 5891 5891 5890 5889 5889 5889 5889 5889 5889 5890 5890 5890 5890 5890 5890 5891 5891 5891 5891 5890 5890 5890 5890 5890 5890
5919 5917 5914 5911 5909 5907 5905 5903 5901 5899 5898 5896 5895 5894 5893 5892 5891 5890 5890 5889 5889 5888 5888 5888 5888 5888 5888 5888 5888 5888 5888 5888 5888 5888 5888 5888 5888 5887 5887 5887 5887 5887 5887
5920 5918 5915 5913 5910 5908 5906 5904 5902 5900 5898 5897 5895 5894 5893 5892 5891 5890 5889 5889 5888 5887 5887 5887 5887 5886 5886 5886 5886 5886 5886 5885 5885 5885 5885 5885 5884 5884 5884 5884 5884 5884 5884
5920 5918 5916 5913 5911 5909 5907 5904 5902 5900 5899 5897 5896 5894 5893 5891 5890 5889 5888 5887 5887 5886 5885 5885 5885 5884 5884 5884 5884 5884 5883 5883 5882 5882 5882 5881 5881 5881 5881 5880 5880 5880 5879
5921 5918 5916 5914 5912 5910 5908 5905 5903 5901 5899 5897 5896 5894 5892 5891 5889 5888 5886 5885 5885 5884 5884 5883 5883 5882 5882 5881 5881 5881 5880 5879 5879 5878 5878 5878 5877 5877 5876 5876 5875 5875 5875
5921 5919 5917 5915 5913 5910 5908 5906 5904 5902 5900 5898 5896 5894 5892 5890 5888 5886 5884 5883 5883 5882 5882 5881 5880 5880 5879 5879 5878 5877 5877 5876 5875 5874 5874 5874 5873 5873 5872 5872 5871 5871 5870
5920 5919 5917 5915 5913 5911 5908 5906 5904 5902 5900 5898 5895 5893 5891 5889 5887 5885 5883 5882 5881 5881 5880 5879 5878 5877 5877 5876 5875 5874 5873 5872 5871 5870 5869 5869 5868 5868 5868 5867 5867 5866 5865
5920 5918 5916 5914 5912 5910 5908 5906 5904 5902 5899 5897 5895 5893 5891 5888 5886 5884 5882 5881 5880 5878 5877 5877 5876 5875 5874 5872 5871 5870 5869 5868 5867 5866 5865 5864 5863 5863 5862 5862 5861 5861 5860
5919 5917 5915 5914 5912 5910 5908 5906 5903 5901 5899 5896 5894 5892 5890 5887 5885 5883 5881 5879 5878 5876 5875 5874 5873 5871 5870 5869 5868 5866 5865 5864 5863 5861 5860 5859 5858 5857 5857 5856 5855 5855 5854
5918 5916 5914 5913 5911 5909 5907 5905 5903 5901 5898 5896 5893 5891 5888 5886 5884 5882 5880 5878 5876 5874 5872 5871 5869 5868 5867 5865 5864 5862 5861 5859 5858 5856 5855 5854 5853 5852 5851 5850 5850 5849 5848
5917 5915 5913 5911 5910 5908 5906 5904 5902 5900 5897 5895 5892 5890 5887 5885 5882 5880 5878 5876 5873 5871 5869 5867 5866 5864 5863 5862 5860 5858 5857 5855 5853 5852 5850 5849 5848 5847 5846 5845 5844 5843 5842
5914 5913 5911 5909 5908 5906 5904 5903 5900 5898 5896 5893 5890 5888 5885 5883 5880 5878 5875 5873 5870 5868 5866 5864 5862 5861 5859 5858 5856 5854 5852 5851 5849 5847 5845 5844 5843 5841 5840 5839 5838 5837 5836
5911 5910 5908 5907 5906 5904 5902 5900 5898 5896 5894 5891 5889 5886 5883 5881 5878 5876 5873 5870 5868 5865 5863 5861 5859 5857 5855 5854 5852 5850 5848 5846 5844 5842 5840 5839 5837 5836 5834 5833 5832 5830 5829
5908 5907 5905 5904 5903 5901 5899 5898 5895 5893 5891 5888 5886 5883 5881 5878 5875 5873 5870 5867 5865 5862 5860 5857 5855 5853 5851 5849 5847 5846 5843 5841 5839 5837 5835 5834 5832 5830 5829 5827 5826 5824 5823
5904 5903 5902 5900 5899 5898 5896 5894 5892 5890 5888 5885 5883 5880 5878 5875 5872 5869 5867 5864 5861 5859 5856 5853 5851 5849 5847 5845 5843 5841 5839 5836 5834 5832 5830 5828 5827 5825 5823 5821 5819 5818 5816
5899 5898 5897 5896 5895 5893 5892 5890 5888 5886 5884 5882 5879 5877 5874 5871 5869 5866 5863 5860 5858 5855 5852 5849 5846 5843 5841 5839 5837 5835 5833 5831 5829 5827 5824 5822 5820 5818 5817 5815 5813 5811 5809
5894 5894 5893 5891 5890 5889 5887 5885 5883 5881 5879 5877 5875 5873 5870 5868 5865 5862 5859 5856 5853 5850 5847 5844 5841 5838 5836 5834 5832 5830 5828 5826 5824 5821 5819 5816 5814 5812 5810 5808 5806 5804 5802
5889 5888 5887 5886 5885 5884 5882 5880 5877 5875 5874 5872 5870 5868 5865 5863 5860 5857 5854 5851 5848 5845 5841 5838 5836 5833 5831 5829 5827 5825 5823 5820 5818 5815 5813 5810 5808 5805 5803 5801 5799 5797 5794
5883 5882 5881 5880 5879 5878 5876 5874 5871 5869 5869 5867 5865 5863 5860 5858 5855 5852 5849 5846 5842 5839 5836 5833 5830 5828 5826 5823 5821 5819 5817 5814 5812 5809 5806 5804 5801 5799 5796 5794 5791 5789 5787
5876 5875 5875 5874 5873 5872 5870 5869 5866 5865 5864 5862 5860 5857 5855 5852 5849 5846 5843 5840 5836 5833 5831 5828 5825 5822 5820 5818 5815 5813 5810 5808 5805 5802 5799 5797 5794 5792 5789 5787 5784 5782 5779
5868 5868 5868 5868 5867 5866 5864 5863 5861 5860 5858 5856 5854 5852 5849 5846 5843 5840 5836 5833 5830 5827 5825 5822 5819 5816 5814 5811 5809 5806 5804 5801 5798 5795 5792 5790 5787 5785 5782 5779 5777 5774 5772
5861 5861 5860 5860 5860 5859 5858 5857 5855 5853 5852 5850 5848 5845 5843 5840 5837 5834 5830 5827 5824 5821 5818 5816 5813 5810 5808 5805 5802 5800 5797 5794 5791 5788 5785 5783 5780 5778 5775 5772 5769 5767 5764
5853 5853 5853 5852 5852 5851 5851 5850 5849 5847 5845 5843 5841 5838 5836 5834 5831 5828 5824 5821 5818 5815 5813 5809 5807 5804 5801 5798 5796 5793 5790 5787 5784 5781 5778 5776 5773 5770 5768 5765 5762 5759 5756
5845 5845 5844 5844 5844 5843 5843 5842 5841 5839 5838 5836 5833 5832 5830 5828 5825 5822 5819 5815 5812 5809 5806 5803 5800 5797 5795 5792 5789 5786 5783 5780 5777 5774 5771 5768 5765 5763 5760 5757 5754 5751 5748
5836 5836 5836 5836 5836 5836 5835 5835 5833 5832 5830 5828 5826 5824 5823 5820 5818 5815 5812 5809 5806 5803 5800 5797 5794 5791 5788 5785 5782 5779 5776 5773 5770 5767 5764 5761 5758 5755 5752 5750 5747 5744 5740
Wind_Speed
16 16 15 14 12 11 11 10 10 9 8 7 6 5 4 2 1 1 2 2 2 3 3 4 5 5 6 6 6 7 7 7 7 7 8 8 9 9 9 10 10 10 10
15 15 14 13 12 12 11 11 11 10 9 8 6 5 4 3 2 2 3 3 3 4 4 5 6 6 6 7 7 8 8 9 9 9 10 11 11 11 12 12 11 11 12
13 13 13 12 12 12 11 11 10 10 10 9 7 6 5 4 4 3 3 3 4 4 4 5 6 6 7 7 8 9 9 10 10 11 11 12 12 13 13 14 13 13 14
12 12 12 11 11 11 11 11 10 10 10 10 9 7 6 6 5 5 5 5 5 5 5 6 7 7 8 8 9 10 10 11 12 13 13 13 14 14 14 15 15 15 15
11 11 11 10 11 11 11 11 11 10 9 9 10 9 8 7 6 6 6 6 6 6 7 8 8 8 9 9 10 11 12 13 13 14 14 14 15 16 16 16 17 17 18
11 10 10 10 11 11 11 11 11 11 11 10 11 11 10 9 8 8 8 8 6 7 8 9 9 9 10 11 12 13 14 14 14 15 15 16 16 18 18 18 18 18 18
9 9 10 10 10 11 11 11 11 11 11 11 12 12 12 11 10 9 9 8 6 7 8 9 10 10 11 12 13 14 15 15 15 16 16 17 17 18 19 19 19 19 20
9 9 9 10 10 11 11 11 10 11 12 12 12 12 11 12 11 10 10 8 7 8 9 10 10 11 12 13 14 15 15 16 16 17 18 18 19 19 19 20 20 20 21
8 8 9 10 10 11 11 11 11 11 12 12 12 13 12 12 11 10 10 9 9 9 9 10 11 12 12 13 14 15 15 16 17 18 19 19 19 20 21 21 21 22 22
9 9 10 10 11 11 10 10 11 12 12 12 13 13 13 12 12 12 11 10 10 10 10 11 11 12 12 13 13 15 16 16 17 17 18 19 19 20 21 22 22 23 24
9 10 10 10 11 10 10 10 11 12 12 12 13 13 13 13 13 13 12 12 12 12 12 12 13 14 14 14 15 15 16 16 17 18 18 18 19 19 20 21 21 23 23
10 11 11 11 11 11 10 11 12 12 12 12 13 14 14 14 14 14 14 14 14 14 14 13 14 14 15 15 15 16 17 17 17 18 19 19 19 20 20 21 22 22 23
11 11 12 12 11 12 12 12 13 13 13 14 14 14 14 14 15 15 15 16 16 15 15 15 14 15 15 16 16 16 17 18 18 18 18 19 19 20 21 22 22 23 23
13 12 12 13 13 13 14 14 14 15 15 15 15 15 15 15 16 16 16 16 16 16 15 15 15 15 15 16 17 17 18 18 18 19 19 20 21 21 22 23 23 23 23
14 14 14 15 15 15 16 16 16 16 16 16 16 16 16 17 17 17 16 16 16 17 17 16 16 16 17 17 17 18 18 19 20 20 20 20 21 22 22 23 23 23 24
16 16 16 17 16 16 17 17 17 17 17 17 17 17 17 18 18 18 17 17 18 18 18 19 19 19 19 19 18 19 19 19 20 21 21 21 22 22 23 23 24 24 25
17 17 17 17 17 17 18 18 18 18 17 18 18 18 18 18 18 18 19 19 19 20 20 20 20 20 20 20 20 20 20 21 21 21 22 22 23 23 23 24 25 25 26
18 18 18 18 19 19 19 20 21 21 19 19 19 19 19 19 20 20 20 20 21 21 22 22 21 21 20 20 20 20 21 21 22 23 23 23 24 24 24 25 26 26 26
20 20 20 19 19 20 21 22 23 24 23 22 20 20 21 21 22 22 22 22 22 23 23 22 22 22 21 21 21 22 22 22 23 24 24 24 24 25 25 26 26 27 28
22 22 22 21 21 22 22 23 23 23 23 21 21 22 22 23 23 24 24 24 24 24 23 23 23 23 22 22 23 23 23 24 24 24 25 24 25 25 26 25 25 26 27
24 24 24 24 23 23 24 24 24 24 23 23 23 24 25 25 25 25 25 25 25 24 24 24 24 23 22 23 23 24 24 25 25 25 25 25 25 25 26 26 26 27 27
26 26 25 25 25 25 25 25 25 25 25 25 24 25 26 27 27 26 26 25 25 24 25 24 24 24 24 24 24 25 25 25 25 25 25 25 25 25 25 26 26 27 27
27 27 27 27 26 26 26 26 25 25 26 26 26 26 26 27 26 26 26 25 25 25 25 25 25 25 25 25 25 26 26 26 26 26 25 25 25 26 26 26 27 27 28
29 29 28 27 27 27 26 26 26 26 27 27 27 26 26 26 26 27 27 25 25 26 26 26 25 25 25 25 26 26 26 26 27 26 26 26 26 27 27 27 27 27 28
31 31 30 29 27 27 25 26 27 27 28 27 27 26 26 26 26 26 26 26 25 26 26 26 25 25 25 25 26 26 26 26 26 27 27 27 27 27 27 27 28 28 29
32 31 29 28 28 27 27 27 28 28 28 27 27 27 27 27 27 27 27 26 26 26 26 25 25 25 25 26 26 26 27 27 27 27 27 27 27 27 27 28 29 29 30
Wind_Direction
22 24 27 31 33 36 38 39 39 37 37 36 37 36 32 9 305 276 253 248 253 247 247 241 240 241 239 240 239 239 243 246 244 245 250 255 257 255 254 253 254 257 260
18 21 23 26 29 31 32 34 33 31 29 28 27 25 25 22 0 299 276 271 263 257 260 256 248 249 247 247 247 248 249 248 249 252 255 259 258 258 254 254 257 261 263
11 14 17 20 25 26 27 27 27 25 23 20 16 14 11 4 353 332 304 288 275 267 270 270 267 266 260 261 260 259 259 256 256 258 260 260 259 262 257 255 257 261 266
4 6 11 16 21 24 24 25 26 20 18 17 13 9 1 350 341 329 316 295 283 275 274 275 275 274 270 269 271 269 270 266 262 261 260 259 261 264 264 262 261 264 266
2 4 8 15 18 20 18 19 19 16 14 13 11 7 358 349 343 327 313 298 284 279 276 275 277 275 273 273 275 274 275 273 269 266 266 265 264 263 262 263 264 266 269
1 6 10 13 14 14 15 16 16 16 14 10 9 7 3 356 347 332 316 304 286 282 282 280 279 277 275 274 277 278 279 279 275 272 269 268 267 265 264 264 266 268 270
359 5 9 8 9 10 11 11 11 10 9 7 5 2 0 356 349 340 327 314 296 290 285 282 281 280 278 277 277 279 279 279 277 274 271 269 271 271 269 267 266 268 270
352 355 358 360 2 3 4 4 1 3 4 1 358 356 354 352 347 340 336 322 305 297 292 288 286 285 284 283 281 280 280 281 280 276 274 272 272 271 270 268 267 269 271
338 341 347 352 355 356 357 358 359 357 357 357 355 353 352 350 348 342 335 331 317 309 305 297 294 292 291 289 287 285 283 283 283 282 278 276 275 274 273 272 271 271 272
331 330 336 343 348 349 350 351 354 353 352 355 354 352 352 350 347 344 341 335 330 320 312 305 301 297 296 293 291 290 286 284 283 280 280 280 277 276 275 274 274 274 274
325 325 325 333 337 340 343 346 348 347 349 352 352 350 349 347 346 343 337 333 328 320 311 305 300 299 299 296 293 291 291 290 288 283 282 283 283 281 278 277 276 276 277
313 317 320 324 329 331 334 337 340 342 344 345 345 344 342 341 340 338 336 332 326 321 315 306 300 298 297 297 295 294 292 295 293 290 288 285 286 283 282 281 279 279 279
303 307 307 312 317 324 327 329 331 334 335 336 336 335 335 334 334 333 332 330 326 321 315 309 302 299 299 299 296 295 295 296 296 293 291 289 288 288 286 284 283 281 282
291 294 294 302 308 314 318 321 322 325 328 328 329 329 329 327 326 326 325 325 325 322 318 315 308 303 301 300 298 295 294 295 295 292 291 292 290 290 289 287 285 284 283
285 285 288 295 300 305 310 313 316 318 320 322 323 324 325 324 322 321 322 322 321 321 319 314 308 304 301 300 298 296 295 295 295 293 291 291 289 290 289 287 285 284 284
279 282 286 290 294 299 303 306 308 310 312 315 319 319 319 321 321 320 319 319 318 317 317 315 310 305 301 301 300 297 295 295 295 295 293 292 292 289 289 289 287 287 287
276 280 283 286 287 292 295 298 300 301 305 309 313 314 316 318 319 317 317 317 317 316 316 314 312 306 302 301 300 300 300 298 298 298 299 297 292 290 289 290 290 290 290
273 275 278 282 285 289 293 296 296 298 301 305 307 310 313 314 316 317 316 315 316 315 314 311 309 306 303 302 301 301 302 302 303 302 300 300 298 295 293 292 292 291 292
269 271 275 279 283 287 291 294 296 300 301 301 302 306 308 311 312 313 314 314 313 313 312 310 307 306 303 301 300 301 302 302 302 302 301 299 297 296 294 293 293 292 292
268 271 274 278 283 286 290 293 295 298 300 301 302 303 305 307 309 311 311 310 311 310 310 309 308 306 304 302 301 301 301 301 300 300 300 300 298 297 297 295 295 295 294
267 270 273 276 280 283 288 291 293 295 298 300 303 304 305 307 307 308 309 308 308 307 307 308 309 307 305 303 302 302 301 300 301 301 301 301 299 299 298 296 296 296 296
265 267 271 275 278 281 285 288 290 292 295 300 301 303 303 305 306 306 307 305 305 304 306 306 306 305 303 302 302 302 301 301 303 303 301 302 301 300 300 298 296 296 296
265 268 270 273 276 279 282 284 287 290 292 295 297 300 301 303 304 305 305 304 304 303 305 305 304 304 302 302 302 303 303 302 302 304 303 301 301 300 300 299 297 297 299
264 267 267 270 273 276 278 282 285 288 290 292 294 298 299 302 303 305 306 303 303 302 304 305 304 303 303 303 303 302 302 303 303 302 302 301 300 301 301 300 300 300 301
260 263 265 267 270 273 276 281 284 288 289 290 292 295 297 299 301 303 305 304 303 304 304 304 304 304 303 304 304 304 303 303 303 303 302 302 302 302 302 303 303 303 303
261 264 267 268 269 271 273 278 282 286 287 288 290 292 295 296 298 301 302 302 303 304 305 304 303 304 304 305 305 304 303 303 303 303 302 301 302 302 302 302 303 303 303